Home > Weather > Kakata > Past weeks

Flag for Liberia Past Weather in Kakata, Liberia — Yesterday and Last 2 Weeks

Now
75 °F

Thunderstorms. Passing clouds.


Feels Like: 74 °F
Forecast: 73 / 88 °F
Wind: No wind

Location: Roberts Field

Current Time: Jun 1, 2016 at 12:03:22 AM

Latest Report: May 31, 2016 at 11:30 PM


Visibility: N/A

Pressure: 29.95 "Hg

Humidity: 94%

Dew Point: 73 °F

Location of KakataLocation

Past Weather in Kakata — Graph

°F

Kakata Temperature Yesterday

Maximum temperature yesterday: 88 °F (at 11:30 AM)
Minimum temperature yesterday: 75 °F (at 8:00 PM)
Average temperature yesterday: 81 °F

High & Low Weather Summary for the Past Weeks

 TemperatureHumidityPressure
High90 °F (May 17, 1:00 PM)100% (May 17, 11:30 PM)30.04 "Hg (May 17, 11:30 PM)
Low73 °F (May 27, 4:30 AM)66% (May 19, 12:30 PM)29.80 "Hg (May 30, 4:30 PM)
Average80 °F89%29.93 "Hg
* Reported May 16 11:00 PM — May 31 11:00 PM, Kakata, Weather by CustomWeather, © 2016

Note: Actual official high and low records may vary slightly from our data, if they occured in-between our weather recording intervals... More about our weather records

Advertising

Kakata Weather History for the Previous 24 Hours

Scroll right to see more
 ConditionsComfort  
Time TempWeatherWind HumidityBarometerVisibility
11:00 PM
Tue, May 31
75 °FThunderstorms. Passing clouds.No wind94%29.92 "Hg6 mi
10:30 PM75 °FThunderstorms. Passing clouds.No wind94%29.92 "Hg6 mi
10:00 PM75 °FThunderstorms. Passing clouds.No wind94%29.92 "Hg5 mi
9:30 PM75 °FThunderstorms. Passing clouds.7 mph94%29.92 "Hg4 mi
9:00 PM75 °FThunderstorms. Partly cloudy.15 mph94%29.92 "Hg4 mi
8:30 PM75 °FThunderstorms. Passing clouds.No wind94%29.92 "HgN/A
8:00 PM75 °FThunderstorms. Passing clouds.No wind94%29.89 "Hg6 mi
7:30 PM77 °FThunderstorms. Broken clouds.15 mph94%29.89 "Hg4 mi
7:00 PM81 °FThunderstorms. Partly sunny.No wind94%29.89 "HgN/A
6:30 PM82 °FScattered clouds.No wind84%29.86 "HgN/A
6:00 PM84 °FScattered clouds.12 mph74%29.83 "HgN/A
5:30 PM84 °FScattered clouds.9 mph79%29.83 "HgN/A
5:00 PM84 °FScattered clouds.12 mph79%29.83 "HgN/A
4:30 PM86 °FScattered clouds.15 mph75%29.83 "HgN/A
4:00 PM86 °FScattered clouds.15 mph75%29.83 "HgN/A
3:30 PM88 °FScattered clouds.14 mph70%29.83 "HgN/A
3:00 PM88 °FRain showers. Partly sunny.12 mph70%29.83 "HgN/A
2:30 PM86 °FSprinkles. Partly sunny.12 mph75%29.83 "Hg5 mi
2:00 PM88 °FPartly sunny.13 mph70%29.86 "HgN/A
1:30 PM88 °FPartly sunny.12 mph75%29.86 "HgN/A
1:00 PM88 °FPartly sunny.12 mph70%29.89 "HgN/A
12:30 PM88 °FPartly sunny.6 mph70%29.89 "HgN/A
12:00 PM88 °FPartly sunny.3 mph70%29.92 "HgN/A
11:30 AM88 °FPartly sunny.No wind70%29.92 "HgN/A
11:00 AM86 °FPartly sunny.No wind75%29.92 "HgN/A
10:30 AM86 °FPartly sunny.No wind75%29.92 "HgN/A
10:00 AM82 °FPartly sunny.No wind84%29.95 "HgN/A
9:30 AM81 °FPartly sunny.No wind89%29.95 "HgN/A
9:00 AM79 °FThunderstorms. Partly sunny.No wind94%29.92 "HgN/A
8:30 AM79 °FThunderstorms. Partly sunny.No wind94%29.92 "HgN/A
8:00 AM79 °FThunderstorms. Partly sunny.No wind94%29.92 "HgN/A
7:30 AM77 °FThunderstorms. Partly sunny.No wind94%29.92 "HgN/A
7:00 AM77 °FPassing clouds.No wind94%29.89 "HgN/A
6:30 AM77 °FPassing clouds.No wind94%29.86 "HgN/A
6:00 AM77 °FPassing clouds.No wind94%29.89 "HgN/A
5:00 AM77 °FPassing clouds.No wind94%29.86 "HgN/A
4:30 AM77 °FPassing clouds.No wind94%29.86 "HgN/A
4:00 AM77 °FPassing clouds.No wind94%29.86 "HgN/A
3:30 AM77 °FPassing clouds.No wind94%29.86 "HgN/A
3:00 AM77 °FPassing clouds.No wind94%29.86 "HgN/A
2:00 AM79 °FPassing clouds.No wind94%29.86 "HgN/A
1:30 AM79 °FPassing clouds.No wind94%29.86 "HgN/A
1:00 AM79 °FPassing clouds.No wind94%29.86 "HgN/A
12:30 AM79 °FPassing clouds.No wind94%29.89 "HgN/A
12:00 AM77 °FPassing clouds.No wind100%29.89 "HgN/A
Weather by CustomWeather, © 2016

See weather overviewHow to use our weather pages